Year,Month,Day,Hour,Minute,Value (Times are PST for temperature in C)
2014,09,16,07,39,12.80
2014,09,16,07,40,12.90
2014,09,16,07,41,12.90
2014,09,16,07,42,12.90
2014,09,16,07,43,13.00
2014,09,16,07,44,13.00
2014,09,16,07,45,13.00
2014,09,16,07,46,13.00
2014,09,16,07,47,13.10
2014,09,16,07,48,13.10
2014,09,16,07,49,13.10
2014,09,16,07,50,13.10
2014,09,16,07,51,13.20
2014,09,16,07,52,13.20
2014,09,16,07,53,13.20
2014,09,16,07,54,13.30
2014,09,16,07,55,13.30
2014,09,16,07,56,13.30
2014,09,16,07,57,13.40
2014,09,16,07,58,13.40
2014,09,16,07,59,13.40
2014,09,16,08,00,13.50
2014,09,16,08,01,13.50
2014,09,16,08,02,13.50
2014,09,16,08,03,13.60
2014,09,16,08,04,13.60
2014,09,16,08,05,13.70
2014,09,16,08,06,13.70
2014,09,16,08,07,13.80
2014,09,16,08,08,13.80
2014,09,16,08,09,13.90
2014,09,16,08,10,13.90
2014,09,16,08,11,14.00
2014,09,16,08,12,14.00
2014,09,16,08,13,14.10
2014,09,16,08,14,14.10
2014,09,16,08,15,14.10
2014,09,16,08,16,14.20
2014,09,16,08,17,14.20
2014,09,16,08,18,14.20
2014,09,16,08,19,14.30
2014,09,16,08,20,14.30
2014,09,16,08,21,14.40
2014,09,16,08,22,14.40
2014,09,16,08,23,14.50
2014,09,16,08,24,14.50
2014,09,16,08,25,14.50
2014,09,16,08,26,14.50
2014,09,16,08,27,14.60
2014,09,16,08,28,14.60
2014,09,16,08,29,14.60
2014,09,16,08,30,14.60
2014,09,16,08,31,14.60
2014,09,16,08,32,14.60
2014,09,16,08,33,14.60
2014,09,16,08,34,14.60
2014,09,16,08,35,14.70
2014,09,16,08,36,14.70
2014,09,16,08,37,14.70
2014,09,16,08,38,14.80
2014,09,16,08,39,14.80
2014,09,16,08,40,14.80
2014,09,16,08,41,14.80
2014,09,16,08,42,14.80
2014,09,16,08,43,14.80
2014,09,16,08,44,14.80
2014,09,16,08,45,14.80
2014,09,16,08,46,14.70
2014,09,16,08,47,14.70
2014,09,16,08,48,14.70
2014,09,16,08,49,14.70
2014,09,16,08,50,14.70
2014,09,16,08,51,14.60
2014,09,16,08,52,14.60
2014,09,16,08,53,14.70
2014,09,16,08,54,14.70
2014,09,16,08,55,14.70
2014,09,16,08,56,14.70
2014,09,16,08,57,14.80
2014,09,16,08,58,14.80
2014,09,16,08,59,14.80
2014,09,16,09,00,14.90
2014,09,16,09,01,14.90
2014,09,16,09,02,14.90
2014,09,16,09,03,14.90
2014,09,16,09,04,15.00
2014,09,16,09,05,15.00
2014,09,16,09,06,15.00
2014,09,16,09,07,15.10
2014,09,16,09,08,15.10
2014,09,16,09,09,15.10
2014,09,16,09,10,15.10
2014,09,16,09,11,15.20
2014,09,16,09,12,15.20
2014,09,16,09,13,15.20
2014,09,16,09,14,15.20
2014,09,16,09,15,15.30
2014,09,16,09,16,15.30
2014,09,16,09,17,15.30
2014,09,16,09,18,15.30
2014,09,16,09,19,15.30
2014,09,16,09,20,15.30
2014,09,16,09,21,15.30
2014,09,16,09,22,15.30
2014,09,16,09,23,15.30
2014,09,16,09,24,15.30
2014,09,16,09,25,15.30
2014,09,16,09,26,15.30
2014,09,16,09,27,15.30
2014,09,16,09,28,15.30
2014,09,16,09,29,15.30
2014,09,16,09,30,15.30
2014,09,16,09,31,15.20
2014,09,16,09,32,15.20
2014,09,16,09,33,15.20
2014,09,16,09,34,15.20
2014,09,16,09,35,15.20
2014,09,16,09,36,15.20
2014,09,16,09,37,15.20
2014,09,16,09,38,15.20
2014,09,16,09,39,15.20
2014,09,16,09,40,15.20
2014,09,16,09,41,15.20
2014,09,16,09,42,15.20
2014,09,16,09,43,15.20
2014,09,16,09,44,15.20
2014,09,16,09,45,15.20
2014,09,16,09,46,15.20
2014,09,16,09,47,15.20
2014,09,16,09,48,15.20
2014,09,16,09,49,15.30
2014,09,16,09,50,15.30
2014,09,16,09,51,15.40
2014,09,16,09,52,15.40
2014,09,16,09,53,15.40
2014,09,16,09,54,15.50
2014,09,16,09,55,15.50
2014,09,16,09,56,15.60
2014,09,16,09,57,15.60
2014,09,16,09,58,15.60
2014,09,16,09,59,15.60
2014,09,16,10,00,15.70
2014,09,16,10,01,15.70
2014,09,16,10,02,15.70
2014,09,16,10,03,15.70
2014,09,16,10,04,15.80
2014,09,16,10,05,15.80
2014,09,16,10,06,15.80
2014,09,16,10,07,15.80
2014,09,16,10,08,15.90
2014,09,16,10,09,15.90
2014,09,16,10,10,15.90
2014,09,16,10,11,15.90
2014,09,16,10,12,16.00
2014,09,16,10,13,16.00
2014,09,16,10,14,16.10
2014,09,16,10,15,16.20
2014,09,16,10,16,16.20
2014,09,16,10,17,16.30
2014,09,16,10,18,16.30
2014,09,16,10,19,16.40
2014,09,16,10,20,16.50
2014,09,16,10,21,16.60
2014,09,16,10,22,16.60
2014,09,16,10,23,16.70
2014,09,16,10,24,16.80
2014,09,16,10,25,16.90
2014,09,16,10,26,17.00
2014,09,16,10,27,17.10
2014,09,16,10,28,17.20
2014,09,16,10,29,17.30
2014,09,16,10,30,17.40
2014,09,16,10,31,17.50
2014,09,16,10,32,17.60
2014,09,16,10,33,17.70
2014,09,16,10,34,17.80
2014,09,16,10,35,17.90
2014,09,16,10,36,17.90
2014,09,16,10,37,17.90
2014,09,16,10,38,18.00
2014,09,16,10,39,18.00
2014,09,16,10,40,18.10
2014,09,16,10,41,18.10
2014,09,16,10,42,18.20
2014,09,16,10,43,18.30
2014,09,16,10,44,18.30
2014,09,16,10,45,18.40
2014,09,16,10,46,18.40
2014,09,16,10,47,18.50
2014,09,16,10,48,18.50
2014,09,16,10,49,18.50
2014,09,16,10,50,18.50
2014,09,16,10,51,18.50
2014,09,16,10,52,18.40
2014,09,16,10,53,18.40
2014,09,16,10,54,18.50
2014,09,16,10,55,18.50
2014,09,16,10,56,18.60
2014,09,16,10,57,18.60
2014,09,16,10,58,18.70
2014,09,16,10,59,18.70
2014,09,16,11,00,18.70
2014,09,16,11,01,18.60
2014,09,16,11,02,18.60
2014,09,16,11,03,18.60
2014,09,16,11,04,18.60
2014,09,16,11,05,18.50
2014,09,16,11,06,18.50
2014,09,16,11,07,18.40
2014,09,16,11,08,18.30
2014,09,16,11,09,18.30
2014,09,16,11,10,18.30
2014,09,16,11,11,18.30
2014,09,16,11,12,18.30
2014,09,16,11,13,18.30
2014,09,16,11,14,18.20
2014,09,16,11,15,18.20
2014,09,16,11,16,18.20
2014,09,16,11,17,18.20
2014,09,16,11,18,18.20
2014,09,16,11,19,18.30
2014,09,16,11,20,18.30
2014,09,16,11,21,18.30
2014,09,16,11,22,18.30
2014,09,16,11,23,18.40
2014,09,16,11,24,18.40
2014,09,16,11,25,18.40
2014,09,16,11,26,18.50
2014,09,16,11,27,18.50
2014,09,16,11,28,18.50
2014,09,16,11,29,18.50
2014,09,16,11,30,18.50
2014,09,16,11,31,18.50
2014,09,16,11,32,18.50
2014,09,16,11,33,18.50
2014,09,16,11,34,18.50
2014,09,16,11,35,18.60
2014,09,16,11,36,18.60
2014,09,16,11,37,18.70
2014,09,16,11,38,18.70
2014,09,16,11,39,18.80
2014,09,16,11,40,18.90
2014,09,16,11,41,19.10
2014,09,16,11,42,19.20
2014,09,16,11,43,19.30
2014,09,16,11,44,19.40
2014,09,16,11,45,19.50
2014,09,16,11,46,19.60
2014,09,16,11,47,19.70
2014,09,16,11,48,19.80
2014,09,16,11,49,19.80
2014,09,16,11,50,19.80
2014,09,16,11,51,19.80
2014,09,16,11,52,19.80
2014,09,16,11,53,19.90
2014,09,16,11,54,19.90
2014,09,16,11,55,19.90
2014,09,16,11,56,19.90
2014,09,16,11,57,19.90
2014,09,16,11,58,19.90
2014,09,16,11,59,19.90
2014,09,16,12,00,19.80
2014,09,16,12,01,19.80
2014,09,16,12,02,19.80
2014,09,16,12,03,19.90
2014,09,16,12,04,19.90
2014,09,16,12,05,20.00
2014,09,16,12,06,20.00
2014,09,16,12,07,20.10
2014,09,16,12,08,20.20
2014,09,16,12,09,20.20
2014,09,16,12,10,20.20
2014,09,16,12,11,20.20
2014,09,16,12,12,20.10
2014,09,16,12,13,20.10
2014,09,16,12,14,20.00
2014,09,16,12,15,20.00
2014,09,16,12,16,19.90
2014,09,16,12,17,19.90
2014,09,16,12,18,19.80
2014,09,16,12,19,19.80
2014,09,16,12,20,19.80
2014,09,16,12,21,19.80
2014,09,16,12,22,19.80
2014,09,16,12,23,19.80
2014,09,16,12,24,19.80
2014,09,16,12,25,19.70
2014,09,16,12,26,19.80
2014,09,16,12,27,19.80
2014,09,16,12,28,19.80
2014,09,16,12,29,19.90
2014,09,16,12,30,19.90
2014,09,16,12,31,19.90
2014,09,16,12,32,19.90
2014,09,16,12,33,19.90
2014,09,16,12,34,19.90
2014,09,16,12,35,19.90
2014,09,16,12,36,19.90
2014,09,16,12,37,19.90
2014,09,16,12,38,19.80
2014,09,16,12,39,19.80
2014,09,16,12,40,19.80
2014,09,16,12,41,19.70
2014,09,16,12,42,19.70
2014,09,16,12,43,19.70
2014,09,16,12,44,19.80
2014,09,16,12,45,19.80
2014,09,16,12,46,19.90
2014,09,16,12,47,19.90
2014,09,16,12,48,20.00
2014,09,16,12,49,20.00
2014,09,16,12,50,20.10
2014,09,16,12,51,20.10
2014,09,16,12,52,20.20
2014,09,16,12,53,20.30
2014,09,16,12,54,20.40
2014,09,16,12,55,20.40
2014,09,16,12,56,20.50
2014,09,16,12,57,20.60
2014,09,16,12,58,20.70
2014,09,16,12,59,20.70
2014,09,16,13,00,20.80
2014,09,16,13,01,20.90
2014,09,16,13,02,21.00
2014,09,16,13,03,21.10
2014,09,16,13,04,21.20
2014,09,16,13,05,21.30
2014,09,16,13,06,21.40
2014,09,16,13,07,21.50
2014,09,16,13,08,21.60
2014,09,16,13,09,21.60
2014,09,16,13,10,21.60
2014,09,16,13,11,21.70
2014,09,16,13,12,21.60
2014,09,16,13,13,21.60
2014,09,16,13,14,21.50
2014,09,16,13,15,21.50
2014,09,16,13,16,21.40
2014,09,16,13,17,21.40
2014,09,16,13,18,21.40
2014,09,16,13,19,21.40
2014,09,16,13,20,21.50
2014,09,16,13,21,21.50
2014,09,16,13,22,21.50
2014,09,16,13,23,21.40
2014,09,16,13,24,21.40
2014,09,16,13,25,21.30
2014,09,16,13,26,21.20
2014,09,16,13,27,21.10
2014,09,16,13,28,21.00
2014,09,16,13,29,20.90
2014,09,16,13,30,20.80
2014,09,16,13,31,20.70
2014,09,16,13,32,20.60
2014,09,16,13,33,20.50
2014,09,16,13,34,20.40
2014,09,16,13,35,20.40
2014,09,16,13,36,20.40
2014,09,16,13,37,20.30
2014,09,16,13,38,20.30
2014,09,16,13,39,20.30
2014,09,16,13,40,20.30
2014,09,16,13,41,20.20
2014,09,16,13,42,20.20
2014,09,16,13,43,20.20
2014,09,16,13,44,20.10
2014,09,16,13,45,20.10
2014,09,16,13,46,20.10
2014,09,16,13,47,20.10
2014,09,16,13,48,20.10
2014,09,16,13,49,20.10
2014,09,16,13,50,20.20
2014,09,16,13,51,20.30
2014,09,16,13,52,20.30
2014,09,16,13,53,20.40
2014,09,16,13,54,20.50
2014,09,16,13,55,20.60
2014,09,16,13,56,20.70
2014,09,16,13,57,20.70
2014,09,16,13,58,20.80
2014,09,16,13,59,20.90
2014,09,16,14,00,21.00
2014,09,16,14,01,21.10
2014,09,16,14,02,21.10
2014,09,16,14,03,21.20
2014,09,16,14,04,21.20
2014,09,16,14,05,21.30
2014,09,16,14,06,21.30
2014,09,16,14,07,21.30
2014,09,16,14,08,21.30
2014,09,16,14,09,21.20
2014,09,16,14,10,21.20
2014,09,16,14,11,21.20
2014,09,16,14,12,21.20
2014,09,16,14,13,21.20
2014,09,16,14,14,21.10
2014,09,16,14,15,21.10
2014,09,16,14,16,21.10
2014,09,16,14,17,21.10
2014,09,16,14,18,21.10
2014,09,16,14,19,21.20
2014,09,16,14,20,21.30
2014,09,16,14,21,21.30
2014,09,16,14,22,21.40
2014,09,16,14,23,21.40
2014,09,16,14,24,21.50
2014,09,16,14,25,21.60
2014,09,16,14,26,21.70
2014,09,16,14,27,21.80
2014,09,16,14,28,21.80
2014,09,16,14,29,22.00
2014,09,16,14,30,22.10
2014,09,16,14,31,22.20
2014,09,16,14,32,22.20
2014,09,16,14,33,22.30
2014,09,16,14,34,22.30
2014,09,16,14,35,22.30
2014,09,16,14,36,22.30
2014,09,16,14,37,22.30
2014,09,16,14,38,22.30
2014,09,16,14,39,22.30
2014,09,16,14,40,22.30
2014,09,16,14,41,22.20
2014,09,16,14,42,22.20
2014,09,16,14,43,22.20
2014,09,16,14,44,22.20
2014,09,16,14,45,22.20
2014,09,16,14,46,22.20
2014,09,16,14,47,22.10
2014,09,16,14,48,22.10
2014,09,16,14,49,22.10
2014,09,16,14,50,22.10
2014,09,16,14,51,22.10
2014,09,16,14,52,22.10
2014,09,16,14,53,22.10
2014,09,16,14,54,22.20
2014,09,16,14,55,22.10
2014,09,16,14,56,22.20
2014,09,16,14,57,22.20
2014,09,16,14,58,22.20
2014,09,16,14,59,22.20
2014,09,16,15,00,22.20
2014,09,16,15,01,22.20
2014,09,16,15,02,22.30
2014,09,16,15,03,22.30
2014,09,16,15,04,22.20
2014,09,16,15,05,22.10
2014,09,16,15,06,21.90
2014,09,16,15,07,21.80
2014,09,16,15,08,21.70
2014,09,16,15,09,21.60
2014,09,16,15,10,21.50
2014,09,16,15,11,21.40
2014,09,16,15,12,21.30
2014,09,16,15,13,21.30
2014,09,16,15,14,21.30
2014,09,16,15,15,21.30
2014,09,16,15,16,21.40
2014,09,16,15,17,21.40
2014,09,16,15,18,21.50
2014,09,16,15,19,21.50
2014,09,16,15,20,21.50
2014,09,16,15,21,21.40
2014,09,16,15,22,21.40
2014,09,16,15,23,21.30
2014,09,16,15,24,21.20
2014,09,16,15,25,21.20
2014,09,16,15,26,21.20
2014,09,16,15,27,21.20
2014,09,16,15,28,21.20
2014,09,16,15,29,21.20
2014,09,16,15,30,21.10
2014,09,16,15,31,21.10
2014,09,16,15,32,21.00
2014,09,16,15,33,21.00
2014,09,16,15,34,21.00
2014,09,16,15,35,21.00
2014,09,16,15,36,21.00
2014,09,16,15,37,21.00
2014,09,16,15,38,21.00
2014,09,16,15,39,21.00
2014,09,16,15,40,21.00
2014,09,16,15,41,21.10
2014,09,16,15,42,21.20
2014,09,16,15,43,21.30
2014,09,16,15,44,21.40
2014,09,16,15,45,21.40
2014,09,16,15,46,21.40
2014,09,16,15,47,21.40
2014,09,16,15,48,21.50
2014,09,16,15,49,21.60
2014,09,16,15,50,21.60
2014,09,16,15,51,21.70
2014,09,16,15,52,21.70
2014,09,16,15,53,21.80
2014,09,16,15,54,21.90
2014,09,16,15,55,22.00
2014,09,16,15,56,22.10
2014,09,16,15,57,22.20
2014,09,16,15,58,22.20
2014,09,16,15,59,22.30
2014,09,16,16,00,22.20
2014,09,16,16,01,22.20
2014,09,16,16,02,22.20
2014,09,16,16,03,22.20
2014,09,16,16,04,22.20
2014,09,16,16,05,22.20
2014,09,16,16,06,22.20
2014,09,16,16,07,22.30
2014,09,16,16,08,22.30
2014,09,16,16,09,22.40
2014,09,16,16,10,22.40
2014,09,16,16,11,22.40
2014,09,16,16,12,22.30
2014,09,16,16,13,22.30
2014,09,16,16,14,22.30
2014,09,16,16,15,22.30
2014,09,16,16,16,22.30
2014,09,16,16,17,22.20
2014,09,16,16,18,22.20
2014,09,16,16,19,22.10
2014,09,16,16,20,22.10
2014,09,16,16,21,22.10
2014,09,16,16,22,22.10
2014,09,16,16,23,22.00
2014,09,16,16,24,22.00
2014,09,16,16,25,21.90
2014,09,16,16,26,21.90
2014,09,16,16,27,21.90
2014,09,16,16,28,21.90
2014,09,16,16,29,21.90
2014,09,16,16,30,21.80
2014,09,16,16,31,21.80
2014,09,16,16,32,21.90
2014,09,16,16,33,21.90
2014,09,16,16,34,21.90
2014,09,16,16,35,21.90
2014,09,16,16,36,21.90
2014,09,16,16,37,21.90
2014,09,16,16,38,22.00
2014,09,16,16,39,21.90
2014,09,16,16,40,21.90
2014,09,16,16,41,21.90
2014,09,16,16,42,21.80
2014,09,16,16,43,21.80
2014,09,16,16,44,21.80
2014,09,16,16,45,21.80
2014,09,16,16,46,21.80
2014,09,16,16,47,21.80
2014,09,16,16,48,21.70
2014,09,16,16,49,21.70
2014,09,16,16,50,21.60
2014,09,16,16,51,21.50
2014,09,16,16,52,21.50
2014,09,16,16,53,21.40
2014,09,16,16,54,21.40
2014,09,16,16,55,21.40
2014,09,16,16,56,21.30
2014,09,16,16,57,21.30
2014,09,16,16,58,21.30
2014,09,16,16,59,21.30
2014,09,16,17,00,21.30
2014,09,16,17,01,21.30
2014,09,16,17,02,21.30
2014,09,16,17,03,21.30
2014,09,16,17,04,21.30
2014,09,16,17,05,21.30
2014,09,16,17,06,21.30
2014,09,16,17,07,21.40
2014,09,16,17,08,21.40
2014,09,16,17,09,21.50
2014,09,16,17,10,21.50
2014,09,16,17,11,21.50
2014,09,16,17,12,21.50
2014,09,16,17,13,21.40
2014,09,16,17,14,21.50
2014,09,16,17,15,21.50
2014,09,16,17,16,21.50
2014,09,16,17,17,21.60
2014,09,16,17,18,21.60
2014,09,16,17,19,21.60
2014,09,16,17,20,21.60
2014,09,16,17,21,21.60
2014,09,16,17,22,21.50
2014,09,16,17,23,21.40
2014,09,16,17,24,21.30
2014,09,16,17,25,21.20
2014,09,16,17,26,21.10
2014,09,16,17,27,21.10
2014,09,16,17,28,21.00
2014,09,16,17,29,20.90
2014,09,16,17,30,20.90
2014,09,16,17,31,20.80
2014,09,16,17,32,20.70
2014,09,16,17,33,20.70
2014,09,16,17,34,20.60
2014,09,16,17,35,20.60
2014,09,16,17,36,20.60
2014,09,16,17,37,20.60
2014,09,16,17,38,20.50
2014,09,16,17,39,20.50
2014,09,16,17,40,20.40
2014,09,16,17,41,20.40
2014,09,16,17,42,20.30
2014,09,16,17,43,20.30
2014,09,16,17,44,20.20
2014,09,16,17,45,20.20
2014,09,16,17,46,20.20
2014,09,16,17,47,20.20
2014,09,16,17,48,20.20
2014,09,16,17,49,20.20
2014,09,16,17,50,20.20
2014,09,16,17,51,20.20
2014,09,16,17,52,20.20
2014,09,16,17,53,20.10
2014,09,16,17,54,20.00
2014,09,16,17,55,20.00
2014,09,16,17,56,19.90
2014,09,16,17,57,19.90
2014,09,16,17,58,19.90
2014,09,16,17,59,19.90
2014,09,16,18,00,19.90
2014,09,16,18,01,19.90
2014,09,16,18,02,19.90
2014,09,16,18,03,19.90
2014,09,16,18,04,19.90
2014,09,16,18,05,19.90
2014,09,16,18,06,19.90
2014,09,16,18,07,19.90
2014,09,16,18,08,19.90
2014,09,16,18,09,19.90
2014,09,16,18,10,19.90
2014,09,16,18,11,19.80
2014,09,16,18,12,19.80
2014,09,16,18,13,19.80
2014,09,16,18,14,19.70
2014,09,16,18,15,19.70
2014,09,16,18,16,19.60
2014,09,16,18,17,19.60
2014,09,16,18,18,19.50
2014,09,16,18,19,19.50
2014,09,16,18,20,19.40
2014,09,16,18,21,19.40
2014,09,16,18,22,19.30
2014,09,16,18,23,19.30
2014,09,16,18,24,19.20
2014,09,16,18,25,19.20
2014,09,16,18,26,19.10
2014,09,16,18,27,19.10
2014,09,16,18,28,19.10
2014,09,16,18,29,19.00
2014,09,16,18,30,19.00
2014,09,16,18,31,19.00
2014,09,16,18,32,18.90
2014,09,16,18,33,18.90
2014,09,16,18,34,18.80
2014,09,16,18,35,18.80
2014,09,16,18,36,18.70
2014,09,16,18,37,18.70
2014,09,16,18,38,18.60
2014,09,16,18,39,18.60
2014,09,16,18,40,18.50
2014,09,16,18,41,18.50
2014,09,16,18,42,18.50
2014,09,16,18,43,18.40
2014,09,16,18,44,18.40
2014,09,16,18,45,18.40
2014,09,16,18,46,18.30
2014,09,16,18,47,18.30
2014,09,16,18,48,18.30
2014,09,16,18,49,18.20
2014,09,16,18,50,18.10
2014,09,16,18,51,18.10
2014,09,16,18,52,18.00
2014,09,16,18,53,18.00
2014,09,16,18,54,17.90
2014,09,16,18,55,17.90
2014,09,16,18,56,17.80
2014,09,16,18,57,17.80
2014,09,16,18,58,17.70
2014,09,16,18,59,17.70
2014,09,16,19,00,17.70
2014,09,16,19,01,17.60
2014,09,16,19,02,17.60
2014,09,16,19,03,17.60
2014,09,16,19,04,17.60
2014,09,16,19,05,17.50
2014,09,16,19,06,17.50
2014,09,16,19,07,17.40
2014,09,16,19,08,17.40
2014,09,16,19,09,17.40
2014,09,16,19,10,17.40
2014,09,16,19,11,17.40
2014,09,16,19,12,17.30
2014,09,16,19,13,17.30
2014,09,16,19,14,17.30
2014,09,16,19,15,17.30
2014,09,16,19,16,17.30
2014,09,16,19,17,17.30
2014,09,16,19,18,17.30
2014,09,16,19,19,17.30
2014,09,16,19,20,17.30
2014,09,16,19,21,17.30
2014,09,16,19,22,17.30
2014,09,16,19,23,17.30
2014,09,16,19,24,17.30
2014,09,16,19,25,17.30
2014,09,16,19,26,17.20
2014,09,16,19,27,17.20
2014,09,16,19,28,17.20
2014,09,16,19,29,17.20
2014,09,16,19,30,17.20
2014,09,16,19,31,17.20
2014,09,16,19,32,17.20
2014,09,16,19,33,17.20
2014,09,16,19,34,17.20
2014,09,16,19,35,17.20
2014,09,16,19,36,17.20
2014,09,16,19,37,17.20
2014,09,16,19,38,17.20
2014,09,16,19,39,17.20
2014,09,16,19,40,17.20
2014,09,16,19,41,17.20
2014,09,16,19,42,17.20
2014,09,16,19,43,17.20
2014,09,16,19,44,17.20
2014,09,16,19,45,17.20
2014,09,16,19,46,17.20
2014,09,16,19,47,17.20
2014,09,16,19,48,17.20
2014,09,16,19,49,17.20
2014,09,16,19,50,17.20
2014,09,16,19,51,17.20
2014,09,16,19,52,17.20
2014,09,16,19,53,17.20
2014,09,16,19,54,17.20
2014,09,16,19,55,17.10
2014,09,16,19,56,17.10
2014,09,16,19,57,17.10
2014,09,16,19,58,17.10
2014,09,16,19,59,17.10
2014,09,16,20,00,17.10
2014,09,16,20,01,17.10
2014,09,16,20,02,17.10
2014,09,16,20,03,17.10
2014,09,16,20,04,17.10
2014,09,16,20,05,17.10
2014,09,16,20,06,17.10
2014,09,16,20,07,17.10
2014,09,16,20,08,17.10
2014,09,16,20,09,17.10
2014,09,16,20,10,17.10
2014,09,16,20,11,17.10
2014,09,16,20,12,17.10
2014,09,16,20,13,17.10
2014,09,16,20,14,17.10
2014,09,16,20,15,17.10
2014,09,16,20,16,17.10
2014,09,16,20,17,17.10
2014,09,16,20,18,17.20
2014,09,16,20,19,17.10
2014,09,16,20,20,17.10
2014,09,16,20,21,17.10
2014,09,16,20,22,17.10
2014,09,16,20,23,17.10
2014,09,16,20,24,17.10
2014,09,16,20,25,17.10
2014,09,16,20,26,17.10
2014,09,16,20,27,17.10
2014,09,16,20,28,17.10
2014,09,16,20,29,17.10
2014,09,16,20,30,17.10
